Starlink 1371

operational
NORAD ID: 45542 Int'l Des: 2020-025 Owner: SPXS Country: US Constellation: starlink
LEOCIRCULARSTARLINK_TYPE

About Starlink 1371

Description loading...

Live Position

Loading 3D Globe...

Upcoming Passes

Altitude History

Altitude vs Time

uPlot chart will show altitude changes over time

Two-Line Element Set

1 45542U 20025M 25303.27062004 .00001340 00000-0 10886-3 0 9997
2 45542 53.0552 332.0919 0001357 85.9656 274.1488 15.06395787305434
Epoch: Oct 30, 2025 • Age: 14 hours

Current Status

Altitude 547.0 km
Velocity 7.59 km/s
Sub-Earth Point 13.30°N, 13.33°W
Launch Date Apr 22, 2020
Age 5.5 years
Type internet

Technical Details

Classification Payload
Mass 260.00 kg
Dry Mass 248.00 kg
Total Mass 260.00 kg
Length 0.20 m
Diameter 2.80 m
Span 9.00 m
Shape Box + pan
Manufacturer SPXS
Bus Type Starlink
Phase Status In Orbit
Owner/State SPXS/US

Large Constellations

Loading constellations...